Weather History for Fort Smith, AR

Change the Weather History Date:

Tuesday, February 12, 2013

  Actual Average Record
Temperature  
Mean Temperature 42 °F 43 °F  
Max Temperature 46 °F 55 °F 86 °F (1962)
Min Temperature 38 °F 32 °F -15 °F (1899)
Degree Days  
Heating Degree Days 23 22  
Month to date heating degree days 208 276  
Since 1 July heating degree days 1967 2367  
Moisture  
Dew Point 38 °F    
Average Humidity 83    
Maximum Humidity 100    
Minimum Humidity 65    
Precipitation  
Precipitation 0.50 in 0.10 in 2.28 in (1884)
Month to date precipitation 2.19 1.15  
Year to date precipitation 6.16 3.96  
Sea Level Pressure  
Sea Level Pressure 29.99 in    
Wind  
Wind Speed 7 mph (NE)    
Max Wind Speed 22 mph    
Max Gust Speed 25 mph    
Visibility 7 miles    
Events Rain    
T = Trace of Precipitation, MM = Missing Value Source: NWS Daily Summary

Daily Weather History Graph

Daily Weather History Graph

Search for Another Location

Airport:

Trip Planner

Search our weather history database for the weather conditions in past years. The results will help you decide how hot, cold, wet, or windy it might be!

Date:

Astronomy

Feb. 12, 2013 Rise Set
Actual Time 7:06 AM CST 5:57 PM CST
Civil Twilight 6:40 AM CST 6:23 PM CST
Nautical Twilight 6:10 AM CST 6:53 PM CST
Astronomical Twilight 5:41 AM CST 7:22 PM CST
Moon 8:12 AM CST (2/12) 8:49 PM CST (2/12)
Length of Visible Light 11h 42m
Length of Day
10h 50m
Waxing Crescent, 7% of the Moon is Illuminated
Feb 12
Waxing Crescent
Feb 17
First Quarter
Feb 25
Full
Mar 4
Last Quarter
Mar 11
New

Hourly Weather History & Observations

Time (CST) Temp. Windchill Dew Point Humidity Pressure Visibility Wind Dir Wind Speed Gust Speed Precip Events Conditions
12:53 AM 39.9 °F 37.8 °F 34.0 °F 79% 30.12 in 10.0 mi ENE 3.5 mph - N/A   Mostly Cloudy
1:53 AM 39.9 °F 36.7 °F 34.0 °F 79% 30.11 in 10.0 mi NE 4.6 mph - N/A   Clear
2:53 AM 39.9 °F 35.1 °F 34.0 °F 79% 30.08 in 10.0 mi NE 6.9 mph - N/A   Scattered Clouds
3:53 AM 39.0 °F 34.8 °F 33.1 °F 79% 30.05 in 10.0 mi NE 5.8 mph - N/A   Clear
4:53 AM 39.0 °F - 34.0 °F 82% 30.06 in 10.0 mi Calm Calm - N/A   Clear
5:53 AM 39.9 °F 37.8 °F 34.0 °F 79% 30.06 in 10.0 mi SE 3.5 mph - N/A   Partly Cloudy
6:53 AM 41.0 °F 35.2 °F 33.1 °F 73% 30.06 in 10.0 mi NE 9.2 mph - N/A   Overcast
7:53 AM 42.1 °F 37.7 °F 34.0 °F 73% 30.05 in 10.0 mi ENE 6.9 mph - N/A   Scattered Clouds
8:53 AM 43.0 °F 39.5 °F 34.0 °F 71% 30.05 in 10.0 mi ENE 5.8 mph - N/A   Overcast
9:53 AM 45.0 °F 41.2 °F 34.0 °F 65% 30.05 in 10.0 mi East 6.9 mph - N/A   Overcast
10:53 AM 44.1 °F 41.5 °F 35.1 °F 71% 30.06 in 10.0 mi ESE 4.6 mph - 0.00 in   Overcast
11:53 AM 46.0 °F 42.5 °F 32.0 °F 58% 30.04 in 10.0 mi East 6.9 mph - 0.00 in Rain Light Rain
12:53 PM 44.1 °F 38.6 °F 37.9 °F 79% 30.01 in 6.0 mi East 10.4 mph - 0.06 in Rain Rain
1:53 PM 43.0 °F 36.0 °F 39.0 °F 86% 29.98 in 3.0 mi ENE 13.8 mph - 0.08 in Rain Rain
2:53 PM 44.1 °F 37.1 °F 41.0 °F 89% 29.94 in 6.0 mi ENE 15.0 mph - 0.06 in Rain Light Rain
3:06 PM 44.6 °F 40.7 °F 42.8 °F 93% 29.94 in 9.0 mi ENE 6.9 mph - 0.01 in Rain Light Rain
3:53 PM 43.0 °F 36.4 °F 42.1 °F 97% 29.92 in 8.0 mi NE 12.7 mph - 0.06 in Rain Light Rain
4:34 PM 42.8 °F 38.0 °F 42.8 °F 100% 29.92 in 2.5 mi NE 8.1 mph - 0.03 in Rain Light Rain
4:53 PM 42.1 °F 37.1 °F 42.1 °F 100% 29.93 in 3.0 mi NNE 8.1 mph - 0.05 in Rain Light Rain
5:11 PM 42.8 °F 38.0 °F 41.0 °F 93% 29.93 in 2.5 mi NNE 8.1 mph - 0.01 in Rain Light Rain
5:18 PM 42.8 °F 38.0 °F 41.0 °F 93% 29.93 in 2.5 mi North 8.1 mph - 0.02 in Rain Light Rain
5:26 PM 42.8 °F 37.0 °F 41.0 °F 93% 29.93 in 3.0 mi NNE 10.4 mph - 0.02 in Rain Light Rain
5:46 PM 42.8 °F 37.0 °F 39.2 °F 87% 29.93 in 4.0 mi North 10.4 mph - 0.03 in Rain Light Rain
5:53 PM 42.1 °F 36.6 °F 41.0 °F 96% 29.94 in 5.0 mi North 9.2 mph - 0.04 in Rain Light Rain
6:39 PM 42.8 °F 37.5 °F 41.0 °F 93% 29.94 in 4.0 mi North 9.2 mph - 0.02 in Rain Light Rain
6:53 PM 42.1 °F 35.7 °F 41.0 °F 96% 29.94 in 5.0 mi NNE 11.5 mph - 0.03 in Rain Light Rain
7:04 PM 42.8 °F 38.6 °F 39.2 °F 87% 29.94 in 5.0 mi NNE 6.9 mph - 0.00 in Rain Light Rain
7:22 PM 41.0 °F 35.2 °F 39.2 °F 93% 29.94 in 5.0 mi NE 9.2 mph - 0.01 in Rain Light Rain
7:30 PM 41.0 °F 35.2 °F 39.2 °F 93% 29.94 in 5.0 mi NNE 9.2 mph - 0.01 in Rain Light Rain
7:37 PM 41.0 °F 34.7 °F 39.2 °F 93% 29.94 in 5.0 mi NNE 10.4 mph - 0.01 in Rain Light Rain
7:49 PM 41.0 °F 36.4 °F 39.2 °F 93% 29.95 in 4.0 mi NNE 6.9 mph - 0.02 in Rain Light Rain
7:53 PM 41.0 °F 36.4 °F 39.9 °F 96% 29.96 in 4.0 mi NNE 6.9 mph - 0.02 in Rain Light Rain
8:53 PM 41.0 °F 36.4 °F 39.9 °F 96% 29.97 in 10.0 mi North 6.9 mph - 0.04 in Rain Light Rain
9:22 PM 41.0 °F 37.1 °F 39.2 °F 93% 29.98 in 10.0 mi North 5.8 mph - 0.02 in Rain Light Rain
9:53 PM 41.0 °F 38.0 °F 39.0 °F 93% 29.99 in 7.0 mi NNE 4.6 mph - 0.04 in Rain Light Rain
10:53 PM 41.0 °F 37.1 °F 37.0 °F 86% 29.97 in 10.0 mi NNW 5.8 mph - 0.01 in Rain Light Rain
11:53 PM 39.9 °F 35.1 °F 36.0 °F 86% 29.97 in 10.0 mi North 6.9 mph - 0.01 in Rain Light Rain